Location: B�rgermoos
(47.6500°N, 9.0667°E)
Time: 14:38:46
(UTC+00:00)

Cosmos 1626 - Pass Details

Date: 18 September 2020
Orbit: 490 x 495 km, 82.5° (Epoch: 23 October)

Event Time Altitude Azimuth Distance (km) Brightness Sun altitude
Rises 20:13:17 0° 348° (NNW) 2,589 6.5 -26.7°
Reaches altitude 10° 20:15:25 10° 345° (NNW) 1,700 5.4 -26.9°
Enters shadow 20:17:30 31° 337° (NNW) 891 3.8 -27.2°
